Total_Precipitation_Accumulation
1.37 1.23 1.94 1.88 1.67 1.48 1.37 1.36 1.41 1.52 1.58 1.55 1.40 1.23 1.14 1.09 1.14 1.22 1.31 1.25 1.19 1.21 1.17 1.13 1.10 1.08 0.97 0.86 0.93 1.07 1.20 1.35 1.33 1.35 1.42 1.46 1.54 1.58 1.81 2.03 2.08 2.07 2.00
1.03 1.12 1.80 1.76 1.57 1.41 1.35 1.38 1.38 1.35 1.35 1.40 1.42 1.25 1.17 1.13 1.22 1.32 1.33 1.23 1.16 1.16 1.12 1.07 1.13 1.10 0.98 0.94 1.06 1.23 1.26 1.34 1.34 1.46 1.69 1.66 1.65 1.72 1.79 1.90 2.04 2.11 2.00
0.92 1.01 1.42 1.69 1.59 1.46 1.38 1.37 1.35 1.30 1.28 1.32 1.34 1.32 1.20 1.21 1.29 1.35 1.31 1.21 1.19 1.13 1.10 1.05 1.06 1.06 1.02 1.05 1.22 1.33 1.23 1.32 1.52 1.69 2.01 2.22 1.83 1.71 1.67 1.81 1.80 1.83 1.90
0.83 0.94 1.33 1.78 1.70 1.59 1.55 1.54 1.54 1.41 1.25 1.22 1.17 1.13 1.09 1.10 1.17 1.28 1.34 1.23 1.23 1.15 1.08 1.02 0.99 1.05 1.05 1.09 1.26 1.28 1.24 1.38 1.64 1.79 1.92 2.08 2.02 1.87 1.87 1.93 1.90 1.81 1.88
0.85 0.94 1.44 1.90 1.73 1.62 1.59 1.67 1.61 1.44 1.29 1.17 1.09 1.06 1.02 1.08 1.14 1.18 1.13 1.12 1.19 1.19 1.15 1.18 1.14 1.17 1.16 1.22 1.24 1.26 1.37 1.52 1.67 1.55 1.68 1.89 2.35 2.24 1.93 2.05 2.10 1.97 1.85
0.75 0.85 1.28 1.82 1.68 1.52 1.46 1.59 1.52 1.38 1.36 1.26 1.17 1.15 1.12 1.22 1.40 1.30 1.15 1.17 1.19 1.26 1.18 1.21 1.23 1.26 1.29 1.31 1.33 1.40 1.52 1.63 1.50 1.58 1.72 1.89 2.24 2.26 1.87 1.93 1.99 1.97 1.85
0.75 0.79 1.07 1.56 1.54 1.40 1.36 1.43 1.42 1.40 1.40 1.27 1.20 1.21 1.21 1.27 1.46 1.56 1.42 1.37 1.37 1.36 1.26 1.21 1.20 1.18 1.25 1.35 1.36 1.46 1.58 1.52 1.34 1.66 1.73 1.99 2.09 2.08 1.78 1.77 1.82 1.87 2.00
0.84 0.75 0.89 1.33 1.41 1.32 1.34 1.36 1.34 1.31 1.26 1.12 1.12 1.19 1.21 1.23 1.36 1.51 1.52 1.51 1.49 1.40 1.37 1.33 1.30 1.25 1.27 1.27 1.40 1.53 1.59 1.35 1.02 1.33 1.65 1.96 2.29 2.18 1.76 1.66 1.75 1.87 2.08
1.21 1.01 0.95 1.05 1.10 1.18 1.29 1.32 1.43 1.47 1.28 1.10 1.03 1.05 1.09 1.10 1.19 1.30 1.39 1.42 1.39 1.40 1.41 1.36 1.34 1.34 1.38 1.33 1.34 1.42 1.42 1.28 1.14 1.28 1.26 1.85 2.36 2.21 1.86 1.70 1.67 1.80 1.99
1.25 1.18 1.09 1.10 1.07 1.05 1.12 1.33 1.59 1.69 1.51 1.24 1.09 1.02 1.07 1.06 1.08 1.20 1.25 1.39 1.44 1.44 1.49 1.49 1.45 1.38 1.47 1.46 1.43 1.39 1.31 1.11 0.98 1.06 1.32 1.78 2.37 2.30 1.99 1.72 1.55 1.47 1.68
1.16 1.18 1.11 1.11 1.14 1.20 1.23 1.33 1.60 1.75 1.70 1.31 1.08 1.02 0.96 0.86 0.96 1.06 1.06 1.38 1.54 1.64 1.63 1.63 1.56 1.46 1.42 1.41 1.47 1.44 1.12 0.93 0.94 1.09 1.40 2.04 2.54 2.51 2.09 1.77 1.58 1.44 1.43
0.98 1.01 1.03 1.02 0.98 0.99 1.03 1.38 1.64 1.50 1.56 1.24 1.15 1.06 1.00 1.05 1.08 0.94 0.95 1.28 1.50 1.66 1.65 1.59 1.57 1.45 1.25 1.08 1.10 1.12 0.90 0.76 0.83 1.00 1.47 2.25 2.76 2.78 2.30 1.86 1.58 1.43 1.43
0.87 0.78 0.76 0.80 0.75 0.76 0.87 1.05 1.34 1.56 1.57 1.49 1.41 1.31 1.26 1.17 1.01 0.91 0.96 1.04 1.21 1.31 1.26 1.35 1.35 1.25 1.14 1.05 1.04 0.97 0.88 0.75 0.85 0.98 1.55 2.22 2.70 2.82 2.47 1.94 1.60 1.56 1.64
0.92 0.91 0.73 0.65 0.65 0.64 0.69 0.84 1.08 1.27 1.37 1.35 1.26 1.14 1.33 1.28 1.07 0.98 1.10 1.17 1.22 1.29 1.45 1.50 1.44 1.32 1.19 1.06 1.05 0.97 0.92 0.89 0.89 0.99 1.51 1.91 2.37 2.61 2.62 2.30 1.93 1.71 1.67
0.94 0.97 0.85 0.66 0.58 0.62 0.66 0.72 0.78 0.99 1.10 1.08 1.21 1.14 1.19 1.20 1.09 1.00 1.03 1.23 1.27 1.33 1.55 1.66 1.49 1.40 1.38 1.30 1.23 1.18 1.13 1.06 1.04 1.02 1.33 1.63 1.98 2.45 2.82 2.76 2.41 1.95 1.83
0.85 0.88 0.83 0.71 0.67 0.66 0.64 0.60 0.60 0.64 0.81 0.83 0.83 0.81 1.00 1.14 1.12 1.14 1.05 1.17 1.36 1.44 1.51 1.55 1.51 1.41 1.36 1.37 1.33 1.35 1.32 1.12 1.15 1.17 1.26 1.33 1.52 1.86 2.52 2.89 2.63 2.18 2.03
0.71 0.75 0.78 0.77 0.76 0.74 0.74 0.71 0.64 0.65 0.68 0.76 0.83 0.83 0.93 1.06 1.14 1.14 1.04 1.10 1.27 1.49 1.49 1.48 1.47 1.48 1.32 1.25 1.34 1.41 1.40 1.30 1.31 1.35 1.30 1.28 1.21 1.43 1.98 2.60 2.70 2.46 2.33
0.54 0.56 0.64 0.66 0.69 0.73 0.77 0.79 0.72 0.75 0.76 0.74 0.81 0.79 0.81 0.96 1.12 1.20 1.15 1.11 1.27 1.50 1.68 1.74 1.65 1.59 1.46 1.37 1.43 1.41 1.36 1.45 1.42 1.39 1.35 1.34 1.36 1.27 1.42 1.72 2.08 2.42 2.51
0.42 0.41 0.46 0.52 0.57 0.65 0.72 0.79 0.76 0.78 0.91 0.98 0.88 0.76 0.81 0.94 1.06 1.27 1.38 1.32 1.34 1.54 1.63 1.63 1.67 1.57 1.55 1.49 1.38 1.34 1.30 1.43 1.51 1.34 1.31 1.33 1.45 1.41 1.32 1.17 1.31 1.62 2.04
0.38 0.35 0.38 0.47 0.49 0.50 0.61 0.76 0.85 0.81 0.88 1.09 1.13 1.14 1.17 1.22 1.26 1.43 1.54 1.55 1.55 1.63 1.63 1.76 1.94 1.75 1.57 1.56 1.44 1.32 1.27 1.33 1.41 1.43 1.47 1.44 1.47 1.43 1.38 1.24 1.18 1.02 1.28
0.35 0.31 0.35 0.42 0.45 0.46 0.52 0.64 0.74 0.82 1.00 1.20 1.26 1.33 1.47 1.49 1.50 1.63 1.74 1.80 1.74 1.66 1.74 1.91 2.28 2.14 1.78 1.61 1.65 1.51 1.35 1.33 1.41 1.40 1.54 1.62 1.54 1.46 1.49 1.42 1.28 1.12 0.97
0.31 0.29 0.30 0.39 0.49 0.54 0.57 0.70 0.85 1.06 1.18 1.33 1.49 1.48 1.51 1.56 1.60 1.68 1.90 2.02 1.96 1.95 2.03 2.08 2.34 2.49 2.20 2.00 2.03 2.20 1.95 1.74 1.41 1.17 1.27 1.39 1.45 1.48 1.45 1.48 1.39 1.24 1.17
0.28 0.32 0.33 0.43 0.65 0.84 0.92 1.13 1.40 1.65 1.72 1.65 1.66 1.71 1.70 1.72 1.79 1.76 1.88 2.08 2.07 2.06 2.11 2.28 2.60 2.91 2.83 2.54 2.34 2.52 2.27 2.00 1.89 1.38 1.12 1.19 1.32 1.43 1.45 1.53 1.49 1.36 1.31
0.31 0.41 0.58 0.76 1.06 1.30 1.41 1.58 1.80 1.90 1.94 1.87 1.89 1.89 1.87 1.77 1.69 1.69 1.82 2.02 2.18 2.30 2.39 2.45 2.45 2.83 3.09 2.90 2.73 2.40 2.09 1.97 2.13 1.95 1.47 1.19 1.24 1.29 1.35 1.35 1.44 1.49 1.45
0.56 0.76 1.08 1.32 1.52 1.65 1.69 1.76 1.94 2.08 2.24 2.26 2.16 2.02 1.91 1.87 1.79 1.70 1.75 1.82 1.87 1.99 2.14 2.27 2.35 2.59 2.78 2.93 2.89 2.67 2.38 2.24 1.86 1.86 1.91 1.66 1.38 1.16 1.15 1.26 1.43 1.47 1.46
0.99 1.18 1.40 1.52 1.65 1.63 1.62 1.65 1.77 1.94 2.11 2.14 2.17 2.15 2.02 1.89 1.78 1.67 1.61 1.70 1.73 1.74 1.90 2.02 2.13 2.39 2.57 2.71 2.78 2.67 2.56 2.53 2.25 1.98 1.82 1.78 1.63 1.33 1.15 1.13 1.21 1.32 1.36